Home > Weather > Fort St. John > Past weeks

Flag for Canada Past Weather in Fort St. John, British Columbia, Canada — Yesterday and Last 2 Weeks

Now
66 °F

Passing clouds.


Feels Like: 66 °F
Forecast: 52 / 77 °F
Wind: 8 mph from West

Location: Fort St John

Current Time: Jul 26, 2016 at 11:03:50 AM

Latest Report: Jul 26, 2016 at 10:00 AM


Visibility: 15 mi

Pressure: 30.05 "Hg (27.73 "Hg at 689m altitude)

Humidity: 52%

Dew Point: 48 °F

Location of Fort St. JohnLocation

Past Weather in Fort St. John — Graph

°F

Fort St. John Temperature Yesterday

Maximum temperature yesterday: 73 °F (at 5:00 PM)
Minimum temperature yesterday: 50 °F (at 4:00 AM)
Average temperature yesterday: 62 °F

High & Low Weather Summary for the Past Weeks

 TemperatureHumidityPressure
High79 °F (Jul 11, 3:00 PM)100% (Jul 13, 12:00 AM)30.30 "Hg (Jul 13, 12:00 AM)
Low50 °F (Jul 14, 4:00 AM)36% (Jul 24, 3:00 PM)29.76 "Hg (Jul 19, 6:00 PM)
Average62 °F70%29.99 "Hg
* Reported Jul 11 10:00 AM — Jul 26 10:00 AM, Fort St. John, Weather by CustomWeather, © 2016

Note: Actual official high and low records may vary slightly from our data, if they occured in-between our weather recording intervals... More about our weather records

Advertising

Fort St. John Weather History for the Previous 24 Hours

Scroll right to see more
 ConditionsComfort  
Time TempWeatherWind HumidityBarometerVisibility
10:00 AM
Tue, Jul 26
66 °FPassing clouds.8 mph52%30.05 "Hg15 mi
9:00 AM64 °FPassing clouds.10 mph56%30.05 "Hg15 mi
8:00 AM61 °FPassing clouds.8 mph59%30.05 "Hg15 mi
7:00 AM59 °FPassing clouds.8 mph63%30.04 "Hg15 mi
6:00 AM55 °FPassing clouds.6 mph72%30.03 "Hg15 mi
5:00 AM54 °FPassing clouds.9 mph72%30.03 "Hg15 mi
4:00 AM55 °FPassing clouds.5 mph67%30.03 "Hg15 mi
3:00 AM54 °FPassing clouds.8 mph72%30.02 "Hg15 mi
2:00 AM55 °FPassing clouds.7 mph67%30.02 "Hg15 mi
1:00 AM57 °FPassing clouds.9 mph67%30.01 "Hg15 mi
12:00 AM59 °FPassing clouds.2 mph68%30.01 "Hg15 mi
11:00 PM
Mon, Jul 25
59 °FPassing clouds.5 mph68%30.01 "Hg15 mi
10:00 PM63 °FPartly sunny.6 mph59%30.01 "Hg15 mi
9:00 PM64 °FPartly sunny.3 mph56%30.00 "Hg15 mi
8:00 PM70 °FPassing clouds.5 mph46%29.99 "Hg15 mi
7:00 PM73 °FScattered clouds.8 mph36%29.99 "Hg15 mi
6:00 PM73 °FScattered clouds.6 mph38%30.00 "Hg15 mi
5:00 PM73 °FScattered clouds.3 mph36%30.00 "Hg15 mi
4:00 PM72 °FBroken clouds.6 mph41%30.00 "Hg15 mi
3:00 PM72 °FBroken clouds.7 mph41%30.01 "Hg15 mi
2:00 PM70 °FScattered clouds.8 mph43%30.02 "Hg15 mi
1:00 PM70 °FScattered clouds.3 mph43%30.03 "Hg15 mi
12:00 PM70 °FPassing clouds.9 mph43%30.03 "Hg15 mi
11:00 AM68 °FPassing clouds.8 mph49%30.04 "Hg15 mi
Weather by CustomWeather, © 2016

See weather overviewHow to use our weather pages